DW2147 Weather Reports


Display with metric or nautical units.
time (UTC)temp
F
wind
direction
speed
MPH
gust
MPH
rain 1hr
in
rain 24hr
in
rain mn
in
humidity
%
barometer
mb
20260906205529 83 0 3.0 9.0 0.00 0.00 0.00 45 1016.2
20260906205306 83 34 3.0 11.0 0.00 0.00 0.00 44 1016.2
20260906204526 83 21 2.0 11.0 0.00 0.00 0.00 44 1016.2
20260906204259 82 42 2.0 8.0 0.00 0.00 0.00 46 1016.2
20260906203757 82 0 3.0 11.0 0.00 0.00 0.00 46 1016.2
20260906203026 82 0 4.0 11.0 0.00 0.00 0.00 46 1016.2
20260906202524 82 0 4.0 11.0 0.00 0.00 0.00 45 1016.3
20260906202255 82 13 4.0 10.0 0.00 0.00 0.00 48 1016.2
20260906201526 82 22 4.0 11.0 0.00 0.00 0.00 44 1016.3
20260906201022 83 13 5.0 13.0 0.00 0.00 0.00 44 1016.3
20260906200522 83 0 4.0 13.0 0.00 0.00 0.00 44 1016.3
20260906200026 83 0 4.0 12.0 0.00 0.00 0.00 47 1016.3
20260906195520 83 0 4.0 12.0 0.00 0.00 0.00 44 1016.4
20260906195015 83 0 3.0 9.0 0.00 0.00 0.00 46 1016.4
20260906194745 83 57 3.0 10.0 0.00 0.00 0.00 44 1016.3
20260906194015 83 0 2.0 10.0 0.00 0.00 0.00 46 1016.3
20260906193747 83 31 3.0 11.0 0.00 0.00 0.00 47 1016.3
20260906193017 83 22 6.0 15.0 0.00 0.00 0.00 44 1016.3
20260906192512 83 0 3.0 15.0 0.00 0.00 0.00 44 1016.2
20260906192011 84 0 1.0 6.0 0.00 0.00 0.00 47 1016.4
20260906191509 83 349 2.0 6.0 0.00 0.00 0.00 47 1016.5
20260906191009 83 44 2.0 9.0 0.00 0.00 0.00 48 1016.5
20260906190509 83 0 3.0 10.0 0.00 0.00 0.00 47 1016.6
20260906190240 83 25 2.0 10.0 0.00 0.00 0.00 49 1016.7
20260906185502 83 21 2.0 6.0 0.00 0.00 0.00 47 1016.7
20260906185003 83 0 4.0 10.0 0.00 0.00 0.00 49 1016.8
20260906184505 83 0 5.0 13.0 0.00 0.00 0.00 48 1016.8
20260906184003 83 0 4.0 13.0 0.00 0.00 0.00 47 1016.6
20260906183503 83 321 3.0 14.0 0.00 0.00 0.00 48 1016.8
20260906183003 83 46 3.0 14.0 0.00 0.00 0.00 48 1016.8
20260906182501 83 34 2.0 9.0 0.00 0.00 0.00 48 1016.7
20260906181959 83 17 1.0 9.0 0.00 0.00 0.00 45 1016.8
20260906181730 83 29 1.0 4.0 0.00 0.00 0.00 50 1016.7
20260906180959 82 0 2.0 9.0 0.00 0.00 0.00 48 1016.7
20260906180732 81 0 3.0 10.0 0.00 0.00 0.00 49 1016.7
20260906180458 82 0 2.0 9.0 0.00 0.00 0.00 48 1016.7
20260906175450 81 61 5.0 10.0 0.00 0.00 0.00 50 1016.7
20260906174951 81 13 4.0 10.0 0.00 0.00 0.00 46 1016.8
20260906174723 81 0 2.0 8.0 0.00 0.00 0.00 48 1016.7
20260906173951 81 0 3.0 11.0 0.00 0.00 0.00 51 1016.8
20260906173451 81 0 4.0 13.0 0.00 0.00 0.00 50 1016.8
20260906172951 81 19 4.0 13.0 0.00 0.00 0.00 47 1016.7
20260906172444 81 42 3.0 8.0 0.00 0.00 0.00 48 1016.8
20260906172212 81 0 3.0 11.0 0.00 0.00 0.00 48 1016.8
20260906171441 81 0 3.0 11.0 0.00 0.00 0.00 51 1016.8
20260906170939 81 18 3.0 10.0 0.00 0.00 0.00 49 1016.8
20260906170439 81 0 3.0 10.0 0.00 0.00 0.00 51 1016.8
20260906165935 81 348 4.0 11.0 0.00 0.00 0.00 48 1016.9
20260906165433 81 0 3.0 11.0 0.00 0.00 0.00 48 1016.9
20260906164936 81 56 1.0 6.0 0.00 0.00 0.00 49 1017.1
20260906164435 81 123 1.0 7.0 0.00 0.00 0.00 52 1017.1
20260906163933 80 0 2.0 7.0 0.00 0.00 0.00 51 1017.1
20260906163433 80 36 1.0 5.0 0.00 0.00 0.00 53 1017.2
20260906162926 80 0 3.0 11.0 0.00 0.00 0.00 55 1017.1
20260906162426 80 17 5.0 11.0 0.00 0.00 0.00 51 1017.1
20260906161927 81 0 3.0 11.0 0.00 0.00 0.00 53 1017.2
20260906161427 80 16 2.0 6.0 0.00 0.00 0.00 54 1017.1
20260906160927 81 9 2.0 11.0 0.00 0.00 0.00 56 1017.2
20260906160429 80 27 3.0 11.0 0.00 0.00 0.00 56 1017.3
20260906155920 80 0 3.0 9.0 0.00 0.00 0.00 55 1017.3
20260906155421 80 16 3.0 9.0 0.00 0.00 0.00 57 1017.3
20260906154922 79 0 2.0 9.0 0.00 0.00 0.00 57 1017.3
20260906154651 79 31 2.0 5.0 0.00 0.00 0.00 56 1017.3
20260906154151 79 28 3.0 10.0 0.00 0.00 0.00 56 1017.3
20260906153653 78 11 5.0 10.0 0.00 0.00 0.00 55 1017.3
20260906152917 78 37 5.0 11.0 0.00 0.00 0.00 54 1017.3
20260906152418 78 0 3.0 11.0 0.00 0.00 0.00 55 1017.2
20260906151917 78 39 2.0 6.0 0.00 0.00 0.00 59 1017.2
20260906151418 77 117 2.0 6.0 0.00 0.00 0.00 57 1017.1
20260906150917 76 30 3.0 9.0 0.00 0.00 0.00 59 1017.1
20260906150419 76 0 3.0 9.0 0.00 0.00 0.00 58 1017.1
20260906145920 76 15 3.0 8.0 0.00 0.00 0.00 61 1016.9
20260906145643 76 0 3.0 6.0 0.00 0.00 0.00 61 1017.0
20260906144913 76 0 3.0 6.0 0.00 0.00 0.00 60 1017.0
20260906144414 76 17 3.0 8.0 0.00 0.00 0.00 60 1017.0
20260906143912 75 27 2.0 8.0 0.00 0.00 0.00 61 1017.0
20260906143411 75 0 3.0 9.0 0.00 0.00 0.00 63 1016.9
20260906142909 75 0 4.0 9.0 0.00 0.00 0.00 62 1016.8
20260906142407 74 0 3.0 8.0 0.00 0.00 0.00 64 1016.8
20260906141900 74 336 2.0 5.0 0.00 0.00 0.00 66 1016.8
20260906141627 73 314 2.0 6.0 0.00 0.00 0.00 67 1016.7
20260906140848 72 350 3.0 6.0 0.00 0.00 0.00 67 1016.7
20260906140346 71 14 3.0 5.0 0.00 0.00 0.00 67 1016.6
20260906135847 71 0 2.0 5.0 0.00 0.00 0.00 69 1016.6
20260906135345 71 40 2.0 6.0 0.00 0.00 0.00 71 1016.5
20260906134845 70 329 2.0 6.0 0.00 0.00 0.00 73 1016.5
20260906134347 69 0 2.0 6.0 0.00 0.00 0.00 75 1016.5
20260906133847 68 0 3.0 6.0 0.00 0.00 0.00 76 1016.5
20260906133342 68 10 3.0 6.0 0.00 0.00 0.00 77 1016.5
20260906132842 67 0 3.0 6.0 0.00 0.00 0.00 78 1016.5
20260906132343 66 350 3.0 6.0 0.00 0.00 0.00 79 1016.6
20260906131843 66 345 3.0 6.0 0.00 0.00 0.00 80 1016.6
20260906131342 65 344 2.0 5.0 0.00 0.00 0.00 81 1016.5
20260906130844 65 350 2.0 4.0 0.00 0.00 0.00 81 1016.5
20260906130338 64 0 2.0 4.0 0.00 0.00 0.00 81 1016.5
20260906125837 63 0 2.0 4.0 0.00 0.00 0.00 81 1016.4
20260906125339 63 0 2.0 5.0 0.00 0.00 0.00 81 1016.4
20260906124838 62 0 2.0 5.0 0.00 0.00 0.00 81 1016.4
20260906124338 62 0 2.0 5.0 0.00 0.00 0.00 81 1016.4
20260906123839 62 11 2.0 5.0 0.00 0.00 0.00 81 1016.4
20260906123334 62 349 1.0 4.0 0.00 0.00 0.00 81 1016.6
20260906122833 62 0 0.0 3.0 0.00 0.00 0.00 81 1016.5
20260906122334 61 0 1.0 3.0 0.00 0.00 0.00 81 1016.5
20260906122104 61 0 1.0 4.0 0.00 0.00 0.00 81 1016.4
20260906121335 60 0 2.0 4.0 0.00 0.00 0.00 80 1016.3
20260906120834 60 348 1.0 4.0 0.00 0.00 0.00 80 1016.2
20260906120335 60 0 0.0 3.0 0.00 0.00 0.00 80 1016.0
20260906115330 60 0 0.0 2.0 0.00 0.00 0.00 80 1015.9
20260906114827 60 0 0.0 0.0 0.00 0.00 0.00 80 1015.9
20260906114322 60 0 0.0 0.0 0.00 0.00 0.00 80 1015.8
20260906113820 60 0 0.0 0.0 0.00 0.00 0.00 80 1015.7
20260906113550 60 0 0.0 0.0 0.00 0.00 0.00 80 1015.7
20260906112818 60 0 0.0 0.0 0.00 0.00 0.00 80 1015.6
20260906112318 60 323 0.0 0.0 0.00 0.00 0.00 80 1015.6
20260906111817 59 323 0.0 0.0 0.00 0.00 0.00 80 1015.5
20260906111311 59 0 0.0 2.0 0.00 0.00 0.00 80 1015.5
20260906110810 59 0 1.0 2.0 0.00 0.00 0.00 80 1015.4
20260906110308 59 0 0.0 2.0 0.00 0.00 0.00 80 1015.3
20260906105806 60 0 0.0 2.0 0.00 0.00 0.00 80 1015.3
20260906105307 60 323 0.0 2.0 0.00 0.00 0.00 79 1015.2
20260906104801 60 0 0.0 0.0 0.00 0.00 0.00 79 1015.2
20260906104259 60 323 0.0 0.0 0.00 0.00 0.00 79 1015.1
20260906104027 60 323 0.0 0.0 0.00 0.00 0.00 79 1015.3
20260906103254 60 323 0.0 0.0 0.00 0.00 0.00 79 1015.2
20260906102754 60 323 0.0 1.0 0.00 0.00 0.00 79 1015.2
20260906102253 60 323 0.0 1.0 0.00 0.00 0.00 79 1015.3
20260906101749 60 0 0.0 1.0 0.00 0.00 0.00 79 1015.3
20260906101247 60 0 0.0 1.0 0.00 0.00 0.00 79 1015.2
20260906100745 60 325 0.0 1.0 0.00 0.00 0.00 79 1015.2
20260906100245 60 325 0.0 2.0 0.00 0.00 0.00 79 1015.2
20260906095746 60 325 1.0 3.0 0.00 0.00 0.00 79 1015.3
20260906095515 60 0 0.0 3.0 0.00 0.00 0.00 79 1015.2
20260906094741 60 254 0.0 0.0 0.00 0.00 0.00 79 1015.2
20260906094510 60 0 0.0 3.0 0.00 0.00 0.00 79 1015.2
20260906093740 60 253 0.0 3.0 0.00 0.00 0.00 79 1015.2
20260906093240 60 0 0.0 0.0 0.00 0.00 0.00 79 1015.2
20260906092743 60 0 0.0 0.0 0.00 0.00 0.00 79 1015.1
20260906092234 61 0 0.0 2.0 0.00 0.00 0.00 79 1015.2
20260906091733 61 0 0.0 2.0 0.00 0.00 0.00 79 1015.1
20260906091230 61 0 0.0 0.0 0.00 0.00 0.00 79 1015.1
20260906091000 61 252 0.0 0.0 0.00 0.00 0.00 79 1015.2
20260906090502 61 252 0.0 0.0 0.00 0.00 0.00 79 1015.2
20260906085722 61 253 0.0 0.0 0.00 0.00 0.00 79 1015.2
20260906085220 61 253 0.0 2.0 0.00 0.00 0.00 79 1015.1
20260906084718 61 0 0.0 2.0 0.00 0.00 0.00 79 1015.1
20260906084216 61 0 0.0 2.0 0.00 0.00 0.00 79 1015.1
20260906083718 62 252 0.0 2.0 0.00 0.00 0.00 79 1015.1
20260906083214 62 0 0.0 0.0 0.00 0.00 0.00 79 1015.1
20260906082944 62 252 0.0 0.0 0.00 0.00 0.00 79 1015.0
20260906082210 62 0 0.0 0.0 0.00 0.00 0.00 79 1015.0
20260906081708 62 252 0.0 0.0 0.00 0.00 0.00 79 1014.9
20260906081206 62 0 0.0 0.0 0.00 0.00 0.00 79 1014.9
20260906080939 62 0 0.0 0.0 0.00 0.00 0.00 79 1014.8
20260906080433 62 0 0.0 0.0 0.00 0.00 0.00 79 1014.8
20260906075700 62 251 0.0 2.0 0.00 0.00 0.00 79 1014.8
20260906075202 63 251 0.0 2.0 0.00 0.00 0.00 79 1014.5
20260906074702 63 0 0.0 0.0 0.00 0.00 0.00 79 1014.4
20260906074201 63 0 0.0 0.0 0.00 0.00 0.00 79 1014.5
20260906073928 63 0 0.0 0.0 0.00 0.00 0.00 79 1014.5
20260906073802 63 250 0.0 0.0 0.00 0.00 0.00 79 1014.5
20260906073311 63 251 0.0 0.0 0.00 0.00 0.00 79 1014.6
20260906072150 63 250 0.0 0.0 0.00 0.00 0.00 79 1014.9
20260906071648 64 251 0.0 0.0 0.00 0.00 0.00 79 1014.6
20260906071147 64 250 0.0 0.0 0.00 0.00 0.00 79 1014.6
20260906070645 64 250 0.0 0.0 0.00 0.00 0.00 79 1014.6
20260906070144 64 0 0.0 0.0 0.00 0.00 0.00 79 1014.8
20260906065915 64 250 0.0 0.0 0.00 0.00 0.00 79 1014.6
20260906065148 65 250 0.0 0.0 0.00 0.00 0.00 79 1014.6
20260906065143 64 0 0.0 0.0 0.00 0.00 0.00 79 1014.6
20260906064140 65 250 0.0 0.0 0.00 0.00 0.00 79 1014.5
20260906063906 65 250 0.0 0.0 0.00 0.00 0.00 79 1014.5
20260906063132 65 250 0.0 0.0 0.00 0.00 0.00 79 1014.5
20260906062902 65 250 0.0 0.0 0.00 0.00 0.00 79 1014.4
20260906062127 65 250 0.0 0.0 0.00 0.00 0.00 79 1014.5
20260906061628 66 250 0.0 0.0 0.00 0.00 0.00 79 1014.4
20260906061354 66 250 0.0 0.0 0.00 0.00 0.00 79 1014.4
20260906060620 66 250 0.0 2.0 0.00 0.00 0.00 79 1014.4
20260906060118 66 250 0.0 2.0 0.00 0.00 0.00 79 1014.4
20260906055616 66 0 0.0 0.0 0.00 0.00 0.00 79 1014.4
20260906055346 66 250 0.0 0.0 0.00 0.00 0.00 79 1014.4
20260906054611 66 250 0.0 0.0 0.00 0.00 0.00 79 1014.3
20260906054116 67 250 0.0 0.0 0.00 0.00 0.00 79 1014.4
20260906054112 67 250 0.0 0.0 0.00 0.00 0.00 79 1014.4
20260906053110 67 250 0.0 0.0 0.00 0.00 0.00 79 1014.4
20260906052608 67 250 0.0 0.0 0.00 0.00 0.00 79 1014.4
20260906052107 67 250 0.0 3.0 0.00 0.00 0.00 79 1014.4
20260906051602 67 250 0.0 3.0 0.00 0.00 0.00 79 1014.5
20260906051102 67 204 0.0 0.0 0.00 0.00 0.00 79 1014.4
20260906050601 67 204 0.0 0.0 0.00 0.00 0.00 79 1014.5
20260906050101 67 204 0.0 0.0 0.00 0.00 0.00 79 1014.6
20260906045833 67 204 0.0 0.0 0.00 0.00 0.00 79 1014.8
20260906045102 67 0 0.0 0.0 0.00 0.00 0.00 79 1014.6
20260906044601 67 0 0.0 0.0 0.00 0.00 0.00 79 1014.6
20260906044102 67 204 0.0 0.0 0.00 0.00 0.00 79 1014.5
20260906043600 67 204 0.0 0.0 0.00 0.00 0.00 79 1014.5
20260906043100 67 0 0.0 0.0 0.00 0.00 0.00 79 1014.5
20260906042600 67 0 0.0 0.0 0.00 0.00 0.00 79 1014.5
20260906042059 67 0 0.0 0.0 0.00 0.00 0.00 79 1014.6
20260906041830 67 0 0.0 0.0 0.00 0.00 0.00 78 1014.6
20260906041058 67 0 0.0 0.0 0.00 0.00 0.00 78 1014.8
20260906040834 67 0 0.0 0.0 0.00 0.00 0.00 78 1014.9
20260906040055 68 0 0.0 0.0 0.00 0.00 0.00 78 1014.8
20260906035557 68 0 0.0 0.0 0.00 0.00 0.00 78 1014.8
20260906035050 68 0 0.0 0.0 0.00 0.00 0.00 78 1014.6
20260906034549 68 0 0.0 0.0 0.00 0.00 0.00 78 1014.8
20260906034045 68 0 0.0 0.0 0.00 0.00 0.00 78 1014.8
20260906033544 68 0 0.0 0.0 0.00 0.00 0.00 78 1014.8
20260906033315 68 0 0.0 0.0 0.00 0.00 0.00 78 1014.8
20260906032537 68 205 0.0 0.0 0.00 0.00 0.00 78 1014.8
20260906032306 69 0 0.0 0.0 0.00 0.00 0.00 78 1014.8
20260906031533 69 204 0.0 0.0 0.00 0.00 0.00 78 1014.6
20260906031032 69 0 0.0 0.0 0.00 0.00 0.00 78 1014.8
20260906030532 69 0 0.0 0.0 0.00 0.00 0.00 78 1014.8
20260906030026 69 0 0.0 0.0 0.00 0.00 0.00 78 1014.9
20260906025754 69 0 0.0 0.0 0.00 0.00 0.00 78 1014.9
20260906025022 69 0 0.0 0.0 0.00 0.00 0.00 78 1014.9
20260906024520 69 0 0.0 0.0 0.00 0.00 0.00 78 1015.0
20260906024020 69 0 0.0 0.0 0.00 0.00 0.00 78 1014.9
20260906023513 69 0 0.0 0.0 0.00 0.00 0.00 78 1014.9
20260906023011 70 0 0.0 0.0 0.00 0.00 0.00 78 1014.9
20260906022510 70 0 0.0 0.0 0.00 0.00 0.00 78 1014.8
20260906022008 70 0 0.0 0.0 0.00 0.00 0.00 78 1014.8
20260906021507 70 205 0.0 0.0 0.00 0.00 0.00 78 1014.6
20260906021002 70 205 0.0 0.0 0.00 0.00 0.00 78 1014.6
20260906020734 70 205 0.0 0.0 0.00 0.00 0.00 78 1014.6
20260906020001 70 205 0.0 0.0 0.00 0.00 0.00 78 1014.5
20260906015458 71 205 0.0 0.0 0.00 0.00 0.00 78 1014.3
20260906014959 71 0 0.0 0.0 0.00 0.00 0.00 78 1014.3
20260906014458 71 0 0.0 0.0 0.00 0.00 0.00 77 1014.3
20260906013959 71 205 0.0 0.0 0.00 0.00 0.00 78 1014.3
20260906013456 71 204 0.0 0.0 0.00 0.00 0.00 78 1014.4
20260906012957 71 204 0.0 0.0 0.00 0.00 0.00 78 1014.2
20260906012456 71 0 0.0 0.0 0.00 0.00 0.00 77 1014.2
20260906011958 71 0 0.0 0.0 0.00 0.00 0.00 77 1014.2
20260906011457 71 0 0.0 0.0 0.00 0.00 0.00 77 1014.1
20260906010958 71 0 0.0 0.0 0.00 0.00 0.00 77 1014.0
20260906010452 71 0 0.0 0.0 0.00 0.00 0.00 77 1014.1
20260906005952 71 0 0.0 0.0 0.00 0.00 0.00 77 1014.1
20260906005453 71 0 0.0 0.0 0.00 0.00 0.00 77 1014.1
20260906004953 71 0 0.0 0.0 0.00 0.00 0.00 77 1014.0
20260906004454 71 0 0.0 0.0 0.00 0.00 0.00 77 1014.1
20260906003953 71 0 0.0 0.0 0.00 0.00 0.00 77 1014.0
20260906003449 71 0 0.0 2.0 0.00 0.00 0.00 77 1014.0
20260906002953 71 0 1.0 2.0 0.00 0.00 0.00 77 1013.9
20260906002454 72 0 1.0 3.0 0.00 0.00 0.00 77 1013.9
20260906002220 72 0 2.0 3.0 0.00 0.00 0.00 77 1013.9
20260906001451 72 211 2.0 3.0 0.00 0.00 0.00 77 1013.8
20260906000955 72 0 2.0 5.0 0.00 0.00 0.00 77 1013.9
20260906000444 72 0 2.0 5.0 0.00 0.00 0.00 76 1013.9
20260905235945 73 0 3.0 5.0 0.00 0.00 0.00 76 1013.9
20260905235720 73 0 3.0 5.0 0.00 0.00 0.00 76 1013.8
20260905234945 73 0 3.0 5.0 0.00 0.00 0.00 75 1013.9
20260905234444 74 0 4.0 6.0 0.00 0.00 0.00 75 1013.8
20260905233942 74 0 3.0 8.0 0.00 0.00 0.00 74 1013.9
20260905233442 75 0 3.0 8.0 0.00 0.00 0.00 73 1013.9
20260905233438 76 0 1.0 6.0 0.00 0.00 0.00 72 1013.7
20260905232438 76 309 1.0 3.0 0.00 0.00 0.00 72 1013.7
20260905231939 76 311 1.0 3.0 0.00 0.00 0.00 71 1013.6
20260905231441 77 0 1.0 3.0 0.00 0.00 0.00 71 1013.7
20260905230925 77 0 2.0 7.0 0.00 0.00 0.00 70 1013.5
20260905230653 78 284 2.0 7.0 0.00 0.00 0.00 68 1013.7
20260905225922 78 350 1.0 3.0 0.00 0.00 0.00 67 1013.6
20260905225423 78 0 0.0 2.0 0.00 0.00 0.00 67 1013.6
20260905224934 78 13 1.0 2.0 0.00 0.00 0.00 66 1013.5
20260905224426 79 0 1.0 3.0 0.00 0.00 0.00 65 1013.5
20260905223923 79 0 0.0 3.0 0.00 0.00 0.00 64 1013.4
20260905223437 79 0 0.0 0.0 0.00 0.00 0.00 64 1013.3
20260905222921 79 14 0.0 2.0 0.00 0.00 0.00 64 1013.3
20260905222418 79 0 1.0 3.0 0.00 0.00 0.00 64 1013.1
20260905222148 79 0 1.0 3.0 0.00 0.00 0.00 63 1013.2
20260905221703 79 16 2.0 4.0 0.00 0.00 0.00 64 1013.1
20260905220919 78 0 2.0 4.0 0.00 0.00 0.00 65 1013.0
20260905220417 78 0 1.0 3.0 0.00 0.00 0.00 65 1012.8
20260905215919 78 0 2.0 4.0 0.00 0.01 0.00 65 1012.8
20260905215427 78 13 2.0 4.0 0.00 0.01 0.00 64 1012.8
20260905214916 78 0 1.0 3.0 0.00 0.01 0.00 66 1012.7
20260905214418 78 0 1.0 4.0 0.00 0.01 0.00 66 1012.8
20260905213920 78 0 1.0 4.0 0.00 0.01 0.00 66 1012.7
20260905213421 78 9 1.0 3.0 0.00 0.01 0.00 66 1012.6
20260905212912 79 0 1.0 4.0 0.00 0.01 0.00 65 1012.6
20260905212414 79 18 1.0 4.0 0.00 0.01 0.00 64 1012.7
20260905211912 79 15 2.0 5.0 0.00 0.01 0.00 64 1012.6
20260905211409 79 0 2.0 5.0 0.00 0.01 0.00 63 1012.6
20260905210909 79 11 1.0 5.0 0.00 0.01 0.00 63 1012.5
20260905210408 79 10 1.0 5.0 0.00 0.01 0.00 64 1012.5
20260905205909 79 0 3.0 6.0 0.00 0.01 0.00 64 1012.7